Weather History for Wallops Island, VA

Change the Weather History Date:

Saturday, August 24, 2013

  Actual Average Record
Temperature  
Mean Temperature 74 °F 75 °F  
Max Temperature 83 °F 83 °F 92 °F (1995)
Min Temperature 64 °F 67 °F 52 °F (1994)
Degree Days  
Heating Degree Days 0    
Month to date heating degree days 0  
Since 1 June heating degree days 0  
Since 1 July heating degree days 0  
Cooling Degree Days 9    
Month to date cooling degree days 267  
Year to date cooling degree days 1176  
Since 1 June cooling degree days 1045  
Growing Degree Days 23 (Base 50)    
Moisture  
Dew Point 60 °F    
Average Humidity 66    
Maximum Humidity 81    
Minimum Humidity 51    
Precipitation  
Precipitation 0.00 in 0.13 in 0.05 in (2001)
Month to date precipitation 1.28 3.37  
Year to date precipitation 28.90 26.57  
Sea Level Pressure  
Sea Level Pressure 30.22 in    
Wind  
Wind Speed 10 mph (NE)    
Max Wind Speed 20 mph    
Max Gust Speed 24 mph    
Visibility 10 miles    
Events      
T = Trace of Precipitation, MM = Missing Value Source: NWS Daily Summary

Daily Weather History Graph

Daily Weather History Graph

Search for Another Location

Airport:

Trip Planner

Search our weather history database for the weather conditions in past years. The results will help you decide how hot, cold, wet, or windy it might be!

Date:

Astronomy

Aug. 24, 2013 Rise Set
Actual Time 6:25 AM EDT 7:42 PM EDT
Civil Twilight 5:57 AM EDT 8:09 PM EDT
Nautical Twilight 5:24 AM EDT 8:42 PM EDT
Astronomical Twilight 4:50 AM EDT 9:16 PM EDT
Moon 9:40 PM EDT (8/24) 10:17 AM EDT (8/24)
Length of Visible Light 14h 12m
Length of Day
13h 17m
Waning Gibbous, 84% of the Moon is Illuminated
Aug 24
Waning Gibbous
Aug 28
Last Quarter
Sep 5
New
Sep 12
First Quarter
Sep 19
Full

Hourly Weather History & Observations

Time (EDT) Temp. Heat Index Dew Point Humidity Pressure Visibility Wind Dir Wind Speed Gust Speed Precip Events Conditions
12:54 AM 71.1 °F - 61.0 °F 70% 30.09 in 10.0 mi North 4.6 mph - N/A   Overcast
1:54 AM 70.0 °F - 61.0 °F 73% 30.09 in 10.0 mi NNE 6.9 mph - N/A   Overcast
2:54 AM 69.1 °F - 59.0 °F 70% 30.10 in 10.0 mi North 6.9 mph - N/A   Partly Cloudy
3:54 AM 66.9 °F - 59.0 °F 76% 30.12 in 10.0 mi North 8.1 mph - N/A   Mostly Cloudy
4:54 AM 66.0 °F - 57.9 °F 75% 30.12 in 10.0 mi North 4.6 mph - N/A   Clear
5:54 AM 64.9 °F - 57.0 °F 75% 30.14 in 10.0 mi North 5.8 mph - N/A   Clear
6:54 AM 64.9 °F - 57.0 °F 75% 30.16 in 10.0 mi North 6.9 mph - N/A   Clear
7:54 AM 69.1 °F - 57.9 °F 68% 30.18 in 10.0 mi North 6.9 mph - N/A   Clear
8:54 AM 75.9 °F - 59.0 °F 56% 30.20 in 10.0 mi NE 8.1 mph - N/A   Clear
9:54 AM 77.0 °F - 62.1 °F 60% 30.21 in 10.0 mi ENE 12.7 mph - N/A   Clear
10:54 AM 80.1 °F 81.1 °F 61.0 °F 52% 30.23 in 10.0 mi ENE 15.0 mph - N/A   Clear
11:54 AM 81.0 °F 81.9 °F 62.1 °F 52% 30.24 in 10.0 mi ENE 13.8 mph - N/A   Clear
12:54 PM 81.0 °F 81.9 °F 62.1 °F 52% 30.24 in 10.0 mi East 17.3 mph - N/A   Partly Cloudy
1:54 PM 81.0 °F 81.9 °F 62.1 °F 52% 30.25 in 10.0 mi East 17.3 mph - N/A   Clear
2:54 PM 81.0 °F 81.6 °F 60.1 °F 49% 30.25 in 10.0 mi East 17.3 mph - N/A   Clear
3:54 PM 80.1 °F 81.1 °F 61.0 °F 52% 30.25 in 10.0 mi East 16.1 mph - N/A   Clear
4:54 PM 79.0 °F - 61.0 °F 54% 30.26 in 10.0 mi East 15.0 mph - N/A   Clear
5:54 PM 77.0 °F - 61.0 °F 58% 30.27 in 10.0 mi East 13.8 mph - N/A   Partly Cloudy
6:39 PM 75.9 °F - 61.0 °F 60% 30.27 in 10.0 mi East 11.5 mph - N/A   Mostly Cloudy
6:52 PM 75.2 °F - 60.8 °F 61% 30.27 in 10.0 mi East 13.8 mph - N/A   Scattered Clouds
6:54 PM 75.0 °F - 60.1 °F 60% 30.26 in 10.0 mi East 13.8 mph - N/A   Scattered Clouds
7:54 PM 73.0 °F - 59.0 °F 61% 30.27 in 10.0 mi East 11.5 mph - N/A   Clear
8:54 PM 72.0 °F - 60.1 °F 66% 30.30 in 10.0 mi ENE 8.1 mph - N/A   Clear
9:54 PM 68.0 °F - 59.0 °F 73% 30.31 in 10.0 mi North 4.6 mph - N/A   Clear
10:54 PM 66.9 °F - 60.1 °F 79% 30.32 in 10.0 mi North 4.6 mph - N/A   Partly Cloudy
11:54 PM 66.9 °F - 60.1 °F 79% 30.33 in 10.0 mi North 4.6 mph - N/A   Clear